User: anonymous   Login
Location: Écuvilly
(49.6505°N, 2.9206°E)
Time: 14:22:46
(UTC+00:00)
Language:

PSLV R/B - Orbit

View from above orbital plane
View from above orbital plane
View from above satellite
View from above satellite

Ground track
Ground track

The orbit is defined by the following mean orbital elements,

1 29713U          26022.29229471 +.00000000 +00000-0 +48057-3 0 00000
2 29713  98.0357  50.4779 0018525 224.6700 135.3029 14.97600572    04
Epoch (UTC): 22 January 2026 07:00:54
Eccentricity: 0.0018525
inclination: 98.0357°
perigee height: 561 km
apogee height: 587 km
right ascension of ascending node: 50.4779°
argument of perigee: 224.6700°
revolutions per day: 14.97600572
mean anomaly at epoch: 135.3029°

The dashed part of the orbit path shows where the satellite is in the earth's shadow,  

DLR